Redmond, OR

12:51 PM PDT on April 21, 2018 (GMT -0700)
Roberts Field Airport

Weather History for KRDM - August, 2013

Change the Weather History Date:

Friday, August 2, 2013

  Actual Average Record
Temperature  
Mean Temperature 61 °F 67 °F  
Max Temperature 79 °F 87 °F 100 °F (2017)
Min Temperature 43 °F 47 °F 34 °F (1972)
Degree Days  
Heating Degree Days 4 1  
Month to date heating degree days 6 2  
Since 1 June heating degree days 211 288  
Since 1 July heating degree days 26 71  
Cooling Degree Days 0 4  
Month to date cooling degree days 0 8  
Year to date cooling degree days 215 134  
Since 1 June cooling degree days 206 129  
Growing Degree Days 10 (Base 50)    
Moisture  
Dew Point 39 °F    
Average Humidity 53    
Maximum Humidity 89    
Minimum Humidity 16    
Precipitation  
Precipitation 0.00 in 0.01 in 0.51 in (2009)
Month to date precipitation 0.03 0.03  
Year to date precipitation 1.95 5.26  
Sea Level Pressure  
Sea Level Pressure 30.05 in    
Wind  
Wind Speed 5 mph (West)    
Max Wind Speed 16 mph    
Max Gust Speed 23 mph    
Visibility 10 miles    
Events      
T = Trace of Precipitation, MM = Missing Value Source: NWS Daily Summary

Daily Weather History Graph

Daily Weather History Graph

Search for Another Location

Airport or City:

Astronomy

Aug. 02, 2013 Rise Set
Actual Time 5:53 AM PDT 8:27 PM PDT
Civil Twilight 5:20 AM PDT 9:00 PM PDT
Nautical Twilight 4:39 AM PDT 9:41 PM PDT
Astronomical Twilight 3:52 AM PDT 10:28 PM PDT
Moon 2:16 AM PDT (8/2) 5:30 PM PDT (8/2)
Length of Visible Light 15h 39m
Length of Day
14h 33m
Waning Crescent, 15% of the Moon is Illuminated
Aug 2
Waning Crescent
Aug 6
New
Aug 14
First Quarter
Aug 20
Full
Aug 28
Last Quarter

Hourly Weather History & Observations

Time (PDT) Temp. Windchill Dew Point Humidity Pressure Visibility Wind Dir Wind Speed Gust Speed Precip Events Conditions
12:56 AM 52.0 °F - 42.1 °F 69% 30.06 in 10.0 mi WSW 6.9 mph - N/A   Clear
1:56 AM 46.9 °F - 39.9 °F 77% 30.06 in 10.0 mi SE 3.5 mph - N/A   Clear
2:56 AM 44.1 °F - 39.0 °F 82% 30.06 in 10.0 mi Calm Calm - N/A   Clear
3:56 AM 46.0 °F 43.1 °F 39.9 °F 79% 30.06 in 10.0 mi South 5.8 mph - N/A   Clear
4:56 AM 43.0 °F 38.8 °F 39.0 °F 86% 30.06 in 10.0 mi South 6.9 mph - N/A   Clear
5:56 AM 43.0 °F 38.8 °F 39.0 °F 86% 30.08 in 10.0 mi South 6.9 mph - N/A   Clear
6:56 AM 46.0 °F 42.5 °F 41.0 °F 83% 30.09 in 10.0 mi South 6.9 mph - N/A   Clear
7:56 AM 52.0 °F - 41.0 °F 66% 30.09 in 10.0 mi SSE 4.6 mph - N/A   Clear
8:56 AM 57.0 °F - 42.1 °F 57% 30.10 in 10.0 mi SE 3.5 mph - N/A   Clear
9:56 AM 60.1 °F - 42.1 °F 51% 30.09 in 10.0 mi Calm Calm - N/A   Clear
10:56 AM 64.9 °F - 42.1 °F 43% 30.07 in 10.0 mi Calm Calm - N/A   Clear
11:56 AM 68.0 °F - 42.1 °F 39% 30.06 in 10.0 mi North 4.6 mph - N/A   Clear
12:56 PM 70.0 °F - 42.1 °F 36% 30.04 in 10.0 mi Calm Calm - N/A   Clear
1:56 PM 73.9 °F - 39.0 °F 28% 30.04 in 10.0 mi Variable 5.8 mph - N/A   Clear
2:56 PM 75.9 °F - 27.0 °F 16% 30.02 in 10.0 mi NNW 9.2 mph 19.6 mph N/A   Clear
3:56 PM 78.1 °F - 33.1 °F 19% 30.00 in 10.0 mi NE 8.1 mph - N/A   Clear
4:56 PM 78.1 °F - 30.9 °F 18% 30.00 in 10.0 mi NNW 10.4 mph - N/A   Clear
5:56 PM 73.0 °F - 41.0 °F 31% 30.02 in 10.0 mi NW 17.3 mph 23.0 mph N/A   Clear
6:56 PM 71.1 °F - 36.0 °F 28% 30.02 in 10.0 mi NW 6.9 mph - N/A   Clear
7:56 PM 71.1 °F - 34.0 °F 26% 30.01 in 10.0 mi NNW 8.1 mph - N/A   Mostly Cloudy
8:56 PM 64.9 °F - 41.0 °F 42% 30.04 in 10.0 mi Calm Calm - N/A   Clear
9:56 PM 62.1 °F - 39.9 °F 44% 30.05 in 10.0 mi WSW 3.5 mph - N/A   Clear
10:56 PM 60.1 °F - 44.1 °F 55% 30.06 in 10.0 mi NW 5.8 mph - N/A   Clear
11:56 PM 57.9 °F - 44.1 °F 60% 30.06 in 10.0 mi West 6.9 mph - N/A   Clear